Location: Dehesa de la Cepeda
(40.6574°N, 4.3013°W)
Time: 21:11:11
(UTC+00:00)

Vanguard 2 Rocket - Pass Details

Date: 06 August 2021
Orbit: 556 x 3324 km, 32.9° (Epoch: 19 September)

Event Time Altitude Azimuth Distance (km) Brightness Sun altitude
Exits shadow 05:13:43 - 227° (SW) 4,166 9.7 -1.7°
Rises 05:13:48 0° 227° (SW) 4,133 9.7 -1.7°
Reaches altitude 10° 05:17:52 10° 213° (SSW) 2,714 8.9 -1.0°
Maximum altitude 05:22:11 20° 167° (SSE) 1,697 8.2 -0.3°
Drops below altitude 10° 05:25:32 10° 119° (ESE) 2,027 9.3 0.3°
Sets 05:28:02 0° 101° (E) 2,798 10.6 0.8°
